| time (UTC) | temp F | wind direction | speed MPH | gust MPH | rain 1hr in | rain 24hr in | rain mn in | humidity % | barometer mb |
| 20260504213659 | 53 | 230 | 0.0 | 0.0 | 0.00 | 1.84 | 1.84 | 85 | 1010.1 |
| 20260504210700 | 54 | 218 | 0.0 | 0.0 | 0.00 | 1.84 | 1.84 | 85 | 1010.0 |
| 20260504200659 | 55 | 215 | 0.0 | 0.0 | 0.09 | 1.84 | 1.84 | 85 | 1009.7 |
| 20260504200159 | 55 | 193 | 0.0 | 14.0 | 0.09 | 1.84 | 1.84 | 85 | 1009.7 |
| 20260504190200 | 59 | 179 | 0.0 | 8.0 | 0.21 | 1.75 | 1.75 | 84 | 1009.4 |
| 20260504183659 | 60 | 90 | 0.0 | 0.0 | 0.02 | 1.54 | 1.54 | 84 | 1009.0 |
| 20260504183200 | 60 | 81 | 0.0 | 0.0 | 0.02 | 1.54 | 1.54 | 84 | 1008.9 |
| 20260504173740 | 60 | 38 | 0.0 | 0.0 | 0.01 | 1.52 | 1.52 | 84 | 1008.8 |
| 20260504173241 | 60 | 38 | 0.0 | 0.0 | 0.01 | 1.52 | 1.52 | 84 | 1008.8 |
| 20260504170241 | 60 | 0 | 0.0 | 0.0 | 0.02 | 1.52 | 1.52 | 84 | 1009.2 |
| 20260504160241 | 60 | 55 | 0.0 | 0.0 | 0.03 | 1.50 | 1.50 | 85 | 1009.3 |
| 20260504150740 | 59 | 63 | 0.0 | 0.0 | 1.20 | 1.49 | 1.49 | 85 | 1009.6 |
| 20260504150240 | 59 | 63 | 0.0 | 0.0 | 1.20 | 1.47 | 1.47 | 85 | 1009.7 |
| 20260504140740 | 59 | 259 | 0.0 | 0.0 | 0.07 | 0.28 | 0.28 | 86 | 1010.4 |
| 20260504070240 | 60 | 102 | 0.0 | 0.0 | 0.00 | 0.00 | 0.00 | 82 | 1011.5 |
| 20260504060239 | 54 | 275 | 0.0 | 0.0 | 0.00 | 0.00 | 0.00 | 85 | 1011.7 |
| 20260504050739 | 54 | 255 | 0.0 | 0.0 | 0.00 | 0.00 | 0.00 | 85 | 1011.8 |
| 20260504043239 | 54 | 219 | 0.0 | 0.0 | 0.00 | 0.00 | 0.00 | 85 | 1011.8 |
| 20260504040739 | 54 | 87 | 0.0 | 0.0 | 0.00 | 0.00 | 0.00 | 85 | 1011.8 |
| 20260504040238 | 54 | 87 | 0.0 | 0.0 | 0.00 | 0.00 | 0.00 | 85 | 1011.9 |
| 20260504033739 | 53 | 87 | 0.0 | 0.0 | 0.00 | 0.00 | 0.00 | 85 | 1012.0 |
| 20260504023738 | 53 | 87 | 0.0 | 0.0 | 0.00 | 0.00 | 0.00 | 84 | 1011.9 |
| 20260504023239 | 53 | 87 | 0.0 | 0.0 | 0.00 | 0.00 | 0.00 | 84 | 1012.0 |
| 20260504020738 | 53 | 87 | 0.0 | 0.0 | 0.00 | 0.00 | 0.00 | 84 | 1012.0 |
| 20260504013738 | 54 | 87 | 0.0 | 0.0 | 0.00 | 0.00 | 0.00 | 84 | 1012.1 |
| 20260504013239 | 55 | 87 | 0.0 | 0.0 | 0.00 | 0.00 | 0.00 | 84 | 1012.0 |
| 20260504003739 | 55 | 87 | 0.0 | 0.0 | 0.00 | 0.00 | 0.00 | 83 | 1012.5 |
| 20260504000241 | 55 | 87 | 0.0 | 0.0 | 0.00 | 0.00 | 0.00 | 84 | 1012.6 |
| 20260503233239 | 55 | 87 | 0.0 | 0.0 | 0.00 | 0.00 | 0.00 | 84 | 1012.6 |
| 20260503223239 | 55 | 87 | 0.0 | 0.0 | 0.00 | 0.00 | 0.00 | 83 | 1012.7 |
| 20260503220239 | 56 | 87 | 0.0 | 0.0 | 0.00 | 0.00 | 0.00 | 83 | 1012.7 |